Flag for Senegal Weather past 2 weeks in Thiès, Senegal

Now
81 °F

Passing clouds.


Feels Like: 87 °F
Forecast: 78 / 99 °F
Wind: 5 mph from Northwest

Location: Dakar / Yoff

Current Time: Oct 22, 2014 at 4:30:28 AM

Latest Report: Oct 22, 2014 at 4:00 AM


Visibility: N/A

Pressure: 29.86 "Hg

Humidity: 89%

Dew point: 77 °F

Location of ThièsLocation

Historic Weather in Thiès — Graph

°F

Thiès temperature yesterday

Maximum temperature yesterday: 88 °F (at 1:00 PM)
Minimum temperature yesterday: 79 °F (at 2:00 AM)
Average temperature yesterday: 83 °F

Past Weeks' High & Low Weather Summary

 TemperatureHumidityPressure
High93 °F (Oct 15, 3:00 PM)94% (Oct 13, 2:30 AM)29.98 "Hg (Oct 13, 2:30 AM)
Low77 °F (Oct 8, 4:00 AM)44% (Oct 8, 12:30 PM)29.77 "Hg (Oct 18, 4:00 PM)
Average83 °F78%29.88 "Hg
* Reported Oct 7 3:00 AM — Oct 22 3:30 AM, Thiès, Weather by CustomWeather, © 2014

Note: Actual official high and low records may vary slightly from our data, if they occured in-between our weather recording intervals... More about our weather records

Advertising

Thiès weather history for previous 24 hours

 ConditionsComfort  
Time TempWeatherWind HumidityBarometerVisibility
3:30 AM
Oct 22
81 °FPassing clouds.5 mph89%29.86 "HgN/A
3:00 AM81 °FClear.5 mph74%29.86 "Hg10 mi
2:30 AM81 °FClear.5 mph70%29.89 "Hg10 mi
2:00 AM82 °FPassing clouds.6 mph66%29.89 "HgN/A
1:30 AM84 °FPassing clouds.7 mph70%29.92 "HgN/A
1:00 AM82 °FPassing clouds.6 mph79%29.92 "HgN/A
12:30 AM82 °FPassing clouds.7 mph79%29.95 "HgN/A
12:00 AM82 °FPassing clouds.9 mph84%29.95 "HgN/A
11:30 PM
Oct 21
82 °FPassing clouds.10 mph84%29.98 "HgN/A
11:00 PM82 °FPassing clouds.8 mph84%29.95 "HgN/A
10:30 PM82 °FClear.8 mph84%29.95 "Hg10 mi
10:00 PM82 °FClear.9 mph84%29.92 "Hg10 mi
9:30 PM82 °FClear.9 mph84%29.92 "Hg10 mi
9:00 PM82 °FPassing clouds.8 mph84%29.92 "HgN/A
8:30 PM82 °FPassing clouds.12 mph84%29.89 "HgN/A
8:00 PM82 °FPassing clouds.12 mph84%29.89 "HgN/A
7:30 PM82 °FPassing clouds.10 mph84%29.86 "HgN/A
7:00 PM82 °FPassing clouds.12 mph84%29.86 "HgN/A
6:30 PM84 °FPassing clouds.14 mph79%29.86 "HgN/A
6:00 PM84 °FPassing clouds.14 mph79%29.86 "HgN/A
5:30 PM84 °FPassing clouds.15 mph74%29.86 "HgN/A
5:00 PM86 °FPassing clouds.15 mph70%29.86 "HgN/A
4:30 PM86 °FScattered clouds.15 mph75%29.86 "HgN/A
4:00 PM86 °FScattered clouds.15 mph75%29.86 "HgN/A
3:30 PM86 °FScattered clouds.16 mph70%29.86 "HgN/A
3:00 PM86 °FScattered clouds.15 mph75%29.86 "HgN/A
2:30 PM86 °FScattered clouds.14 mph75%29.86 "HgN/A
2:00 PM88 °FScattered clouds.14 mph70%29.89 "HgN/A
1:30 PM86 °FPassing clouds.14 mph70%29.89 "HgN/A
1:00 PM88 °FWarm.N/A66%29.89 "HgN/A
12:30 PM86 °FPassing clouds.15 mph75%29.92 "HgN/A
12:00 PM86 °FSunny.14 mph75%29.92 "Hg10 mi
11:30 AM86 °FSunny.14 mph70%29.95 "Hg10 mi
11:00 AM86 °FSunny.13 mph70%29.95 "Hg10 mi
10:30 AM84 °FPassing clouds.10 mph74%29.95 "HgN/A
10:00 AM84 °FSunny.10 mph74%29.95 "Hg10 mi
9:30 AM84 °FSunny.12 mph74%29.92 "Hg10 mi
9:00 AM84 °FScattered clouds.12 mph74%29.92 "HgN/A
8:30 AM82 °FScattered clouds.9 mph74%29.92 "HgN/A
8:00 AM81 °FSunny.8 mph84%29.92 "Hg10 mi
7:30 AM81 °FScattered clouds.8 mph84%29.92 "HgN/A
7:00 AM81 °FPassing clouds.9 mph84%29.89 "HgN/A
6:30 AM81 °FPassing clouds.9 mph84%29.89 "HgN/A
6:00 AM81 °FPassing clouds.9 mph84%29.89 "HgN/A
5:30 AM81 °FPassing clouds.8 mph84%29.89 "HgN/A
5:00 AM81 °FPassing clouds.8 mph84%29.86 "HgN/A
4:30 AM81 °FPassing clouds.7 mph84%29.86 "HgN/A
4:00 AM81 °FPassing clouds.7 mph84%29.86 "HgN/A
Weather by CustomWeather, © 2014

See weather overviewHow to use our weather pages